Theta_e
350 356 364 364 363 362 362 361 362 359 358 356 352 351 353 354 353 353 351 351 349 349 346 346 346 345 345 345 346 347 347 349 354 355 358 359 358 359 358 355 354 351 354
351 355 361 363 363 362 361 360 358 358 357 355 351 351 352 352 350 352 350 350 350 347 346 346 345 345 344 344 344 345 346 351 354 359 358 358 357 357 355 355 356 353 355
352 353 356 362 360 359 360 359 357 357 355 353 352 352 351 351 349 351 350 350 349 346 346 345 344 343 343 343 342 343 347 352 356 358 356 349 350 355 354 354 354 351 350
350 351 356 362 360 358 357 357 357 355 353 351 351 350 349 349 350 348 350 348 346 346 345 344 343 342 341 341 341 343 347 352 356 353 343 344 346 352 350 350 350 347 345
350 351 354 360 359 357 357 357 355 353 351 350 349 348 348 347 349 349 349 346 345 344 343 342 341 340 340 340 340 342 346 344 348 339 330 331 334 344 345 345 344 343 341
348 353 357 359 359 356 356 355 353 351 349 349 348 348 348 346 348 349 346 345 344 343 341 340 339 339 339 339 340 342 346 339 335 322 329 333 328 339 337 338 338 338 337
346 350 352 358 358 356 356 353 351 349 349 350 348 347 347 346 346 345 343 343 342 341 339 337 337 337 337 338 339 341 345 338 321 321 323 325 329 338 333 336 333 332 332
347 347 350 355 354 355 353 351 349 350 349 348 349 348 347 346 346 343 342 342 341 340 338 335 333 335 336 338 339 340 343 339 325 321 321 321 333 334 332 334 333 332 332
345 346 347 348 350 353 351 350 349 349 349 349 349 349 348 346 347 346 345 342 341 340 338 335 334 335 337 339 341 341 343 335 318 319 322 321 332 331 331 332 334 334 333
336 340 344 343 343 343 343 349 347 346 346 347 346 346 347 343 343 343 347 346 341 339 336 336 336 337 339 341 343 342 344 330 316 317 320 322 331 332 331 330 332 334 335
334 337 337 339 341 343 342 344 344 344 343 341 341 344 336 335 334 337 340 341 341 339 337 336 338 338 333 332 335 334 331 317 316 318 320 330 331 331 330 330 333 334 336
330 333 334 336 339 341 341 334 332 333 332 330 329 330 332 332 337 337 339 340 341 339 339 336 335 331 327 320 319 324 319 317 318 319 320 330 331 332 332 330 332 332 332
331 330 332 332 332 333 333 333 331 329 328 329 329 329 330 330 330 331 331 334 333 333 330 330 328 327 323 322 320 317 318 317 317 320 325 330 331 331 334 332 332 331 331
325 325 327 328 328 328 328 328 328 328 327 326 326 327 326 328 326 326 327 328 327 328 327 327 326 325 323 322 320 318 319 318 320 319 325 331 331 330 332 333 331 330 329
324 325 325 326 324 323 323 325 326 328 327 324 323 323 323 326 326 326 324 325 324 323 323 323 323 322 321 322 321 320 319 316 315 319 321 332 331 330 332 331 329 329 327
321 323 321 320 322 322 321 319 319 322 323 322 321 321 320 319 318 319 322 325 324 322 322 323 322 322 320 317 319 320 319 316 315 312 314 320 332 331 330 331 329 329 325
316 315 316 316 316 315 313 314 318 318 321 319 319 318 317 316 315 314 315 316 316 320 320 322 317 317 316 317 317 317 315 314 313 312 313 314 324 331 330 329 328 325 323
315 314 314 317 314 312 312 313 312 312 314 318 319 316 318 317 315 313 313 313 314 317 321 321 318 316 315 315 312 312 312 312 311 312 313 314 320 323 328 329 326 324 323
315 316 315 314 312 311 311 312 311 310 311 317 319 320 319 321 319 315 313 313 311 313 313 314 314 314 311 311 311 311 309 309 310 313 311 314 317 321 320 327 326 325 324
317 316 316 314 311 310 311 311 310 309 310 312 313 314 315 315 316 312 309 309 309 309 310 312 312 312 312 312 313 313 310 310 309 309 316 314 318 318 319 318 317 319 324
319 318 317 313 310 310 308 308 308 306 306 309 313 316 315 315 316 309 308 309 309 309 308 310 310 310 310 311 308 308 307 309 310 315 310 312 315 316 315 314 314 316 318
319 318 316 312 310 310 308 308 306 306 306 306 309 313 314 314 314 310 308 308 309 309 308 308 307 307 309 314 307 303 300 304 308 312 311 311 312 312 312 313 314 315 315
312 313 310 310 310 313 309 308 307 307 306 306 307 307 311 314 313 311 310 310 308 308 307 307 307 306 304 308 310 306 299 297 301 308 308 307 308 309 309 311 312 313 314
310 311 312 311 309 309 308 305 303 303 302 304 306 309 310 313 314 314 311 311 313 308 307 307 312 308 306 304 309 313 308 306 300 298 303 305 305 306 306 306 311 314 312
313 310 308 306 305 307 307 306 308 305 303 305 305 305 308 309 311 311 310 309 309 308 307 307 308 307 308 306 307 311 309 310 305 300 297 300 304 305 307 309 310 310 311
307 305 304 304 306 307 308 308 302 301 300 300 300 301 302 303 305 307 309 307 308 308 308 308 309 309 308 307 311 311 308 305 304 301 298 298 298 302 305 306 306 306 307
Wind_Speed
1 3 10 13 15 14 14 14 16 17 16 16 17 17 17 16 16 17 17 16 17 17 18 17 17 17 17 17 16 16 14 13 10 14 14 16 15 15 15 13 13 10 13
3 3 10 13 13 14 14 14 15 15 15 16 17 16 16 16 16 15 15 15 16 17 17 17 17 17 17 17 17 16 16 13 11 14 15 16 15 14 13 13 13 11 13
6 5 9 12 12 13 13 13 14 14 14 15 15 15 15 15 16 14 14 14 15 16 16 16 16 16 16 17 18 17 18 15 15 17 16 7 8 13 14 12 14 12 12
7 4 6 12 12 13 13 13 13 13 14 14 14 15 15 15 15 14 13 14 15 15 15 15 15 14 15 16 18 17 18 15 15 15 7 7 9 12 13 12 13 12 12
6 4 8 13 12 13 13 13 13 13 13 14 14 14 14 14 13 12 12 13 14 14 13 13 12 13 13 15 16 16 16 12 15 11 7 6 5 9 11 10 9 10 10
7 6 10 13 13 13 13 13 13 12 12 12 13 14 14 14 12 11 12 12 12 11 10 10 10 11 12 13 15 15 15 14 13 6 5 7 5 9 8 7 7 7 7
6 6 7 12 12 12 13 12 12 12 11 11 13 13 13 12 12 11 11 10 9 8 7 7 7 9 11 12 14 14 13 12 6 6 4 4 5 8 7 6 5 4 4
7 4 7 13 12 11 11 10 10 9 9 9 9 11 11 11 11 11 10 9 7 6 4 2 4 8 11 13 14 14 13 8 8 6 5 3 7 7 6 5 4 3 2
6 5 5 5 9 11 11 10 10 8 8 7 7 8 9 10 10 10 10 10 9 7 3 0 5 8 10 13 13 12 13 10 7 4 5 1 7 7 7 5 4 4 3
11 7 6 5 5 5 3 10 9 8 7 5 5 4 3 2 4 5 6 7 6 4 2 2 6 9 10 11 11 10 10 8 5 5 3 2 7 7 7 6 5 6 5
13 12 8 6 4 5 5 5 7 8 10 9 5 8 7 4 4 5 4 5 6 5 2 3 5 8 9 9 10 9 10 2 5 3 2 5 6 7 7 6 6 6 9
14 14 11 10 7 7 5 6 6 7 5 6 6 6 4 5 5 6 5 3 6 5 6 10 11 9 8 5 3 6 2 2 4 4 3 6 5 6 7 7 6 7 9
9 10 10 10 10 7 7 4 3 3 3 4 8 6 5 4 4 3 2 2 3 6 3 4 4 3 6 4 4 4 4 1 2 3 5 6 5 4 8 9 7 9 9
9 8 8 8 8 8 5 4 3 3 3 3 4 5 3 2 3 3 3 3 3 3 3 3 2 1 4 5 6 6 5 4 2 1 5 8 6 5 8 8 7 9 7
9 7 8 8 7 6 6 4 4 3 3 2 3 4 3 3 3 3 3 3 2 1 1 1 2 3 4 6 5 5 5 4 5 2 2 8 8 7 8 8 8 7 6
8 7 7 8 7 7 6 6 4 3 0 2 2 2 5 3 2 2 2 3 3 2 2 2 3 3 4 4 6 5 5 5 4 4 3 4 9 8 7 8 7 6 4
5 5 5 5 6 6 6 6 5 4 4 3 1 2 3 4 3 2 2 2 3 3 4 2 3 3 4 4 6 5 4 5 4 4 4 3 5 10 10 8 6 4 2
5 5 6 6 7 8 7 5 4 5 5 3 2 1 1 1 3 0 2 2 3 3 3 3 3 3 4 3 4 5 4 5 5 5 5 4 3 3 8 9 7 5 4
3 3 5 6 7 8 8 6 6 7 5 4 2 3 3 4 5 1 1 3 5 2 2 3 3 3 3 4 4 4 4 4 4 4 6 3 5 5 4 9 8 6 5
2 3 2 3 6 6 5 5 5 4 5 4 3 3 4 4 4 2 2 2 3 3 4 2 3 2 4 4 3 5 5 5 4 4 4 3 5 6 5 5 3 4 6
1 2 2 4 5 5 3 3 3 4 3 3 4 6 6 6 6 4 3 3 2 1 3 4 2 2 3 2 1 4 3 4 4 3 2 3 5 5 5 3 2 2 1
3 3 5 4 4 4 2 2 1 2 3 2 4 5 5 6 5 4 3 4 4 2 3 3 2 1 3 2 2 1 3 4 4 4 3 1 5 4 3 3 4 4 4
3 5 5 4 5 5 7 4 4 4 3 4 4 4 4 5 4 4 5 4 4 2 2 3 3 2 1 2 4 3 1 1 2 3 4 1 3 2 3 2 3 4 4
4 6 5 7 7 6 6 5 5 2 3 3 3 4 5 7 7 7 6 5 4 2 3 3 3 2 2 2 1 1 2 2 2 2 3 3 3 4 3 2 4 4 4
5 5 5 6 6 5 5 4 3 4 3 3 4 7 7 6 5 5 5 6 5 3 3 3 3 2 1 3 2 3 1 1 3 2 2 3 3 4 3 3 5 4 4
7 6 3 3 4 5 6 5 6 6 6 5 5 5 5 4 5 6 6 5 4 3 4 3 3 3 2 1 1 3 3 3 2 2 2 1 0 3 3 4 4 3 3
Wind_Direction
219 43 103 112 114 113 112 104 98 97 95 94 93 91 86 83 84 88 90 89 87 84 77 70 62 58 56 54 50 44 43 48 79 105 96 90 81 87 91 93 92 92 93
132 106 107 116 116 115 110 104 98 99 100 101 99 97 98 95 93 91 91 90 88 85 78 69 60 51 47 49 44 36 33 34 100 98 85 82 83 79 86 89 87 87 82
127 107 112 108 108 109 104 99 100 101 102 103 105 104 102 98 97 95 93 92 89 85 78 70 60 49 38 37 42 36 30 38 117 99 94 85 80 80 78 82 90 84 84
117 105 108 108 109 109 105 103 103 103 106 108 110 112 109 104 104 103 100 94 90 83 75 66 56 45 36 33 35 41 38 53 104 102 89 87 89 92 90 84 101 95 93
106 121 110 104 107 109 108 111 110 114 114 116 116 116 115 110 107 104 100 96 89 82 73 64 52 39 29 31 35 39 43 61 95 93 91 86 88 94 89 92 95 100 105
102 104 105 106 111 117 118 116 118 119 119 121 123 124 122 117 109 105 102 99 93 87 78 64 46 31 18 18 31 39 41 75 86 52 60 88 79 90 90 91 91 93 95
102 103 103 108 106 110 120 122 122 123 125 129 131 131 128 125 117 113 110 106 104 98 82 61 40 20 1 3 14 28 35 77 107 99 83 94 98 96 90 93 104 96 89
106 85 107 111 109 109 110 113 116 119 124 127 131 136 138 136 134 133 135 137 135 132 123 93 33 13 355 349 357 1 24 61 116 101 93 81 89 77 77 82 94 110 125
90 89 71 79 107 111 111 113 116 119 118 118 125 139 151 156 154 157 160 162 169 168 162 345 14 3 352 338 341 344 3 58 127 133 114 99 96 89 81 81 71 56 31
63 61 49 60 79 72 83 106 108 111 112 105 121 131 129 144 176 187 193 193 182 170 172 333 357 355 340 328 319 332 351 94 120 114 125 181 108 91 84 83 85 66 23
59 58 48 46 62 80 79 91 86 92 61 28 30 58 46 15 346 335 297 252 217 191 212 339 339 356 8 7 33 31 38 102 127 145 181 144 111 100 98 103 99 69 46
49 39 29 38 36 47 40 57 47 51 47 40 43 48 37 30 26 30 3 271 204 95 83 67 51 43 14 335 342 7 30 119 165 159 191 152 135 114 113 119 111 98 71
57 48 32 34 36 38 43 39 55 48 56 57 52 45 35 27 21 15 0 27 48 76 82 85 76 35 344 331 323 331 326 62 194 179 184 165 149 137 130 133 128 102 85
56 51 44 39 39 35 46 46 49 65 58 61 62 76 61 38 30 25 12 10 31 20 15 16 28 85 289 288 313 312 332 358 352 236 193 174 172 125 123 134 138 115 100
64 48 40 36 36 22 31 25 31 57 75 93 85 82 84 70 48 23 16 29 55 33 24 320 298 300 297 306 312 312 322 336 338 58 275 193 177 143 136 143 144 122 104
47 40 33 28 20 18 14 4 358 358 302 108 75 84 74 86 82 52 0 346 324 305 288 282 283 277 279 297 297 294 293 290 305 341 304 239 183 156 151 143 140 133 132
47 38 36 45 42 37 11 3 359 349 330 322 192 132 120 128 128 150 183 241 253 268 277 276 304 307 307 299 281 284 283 299 302 331 305 230 203 170 161 148 134 138 154
74 54 32 20 22 25 21 15 10 349 335 302 247 213 242 186 155 352 334 280 265 255 243 238 226 253 255 266 286 296 305 302 292 304 280 233 183 162 166 154 157 158 166
94 60 36 27 13 13 5 6 12 356 354 358 19 317 315 325 333 326 355 324 330 288 249 234 252 224 244 254 261 280 284 281 278 282 292 161 189 148 147 168 170 171 157
145 91 60 27 9 9 7 0 2 1 356 21 27 36 19 326 295 327 349 330 340 344 329 327 242 246 246 279 305 294 272 260 260 253 248 144 132 140 161 165 178 183 179
124 143 36 36 355 24 357 344 339 331 319 322 356 342 0 341 320 332 339 348 336 352 305 297 293 270 296 230 339 316 307 289 267 237 87 140 137 145 156 162 165 148 173
158 74 54 51 22 360 341 315 315 296 306 319 337 334 333 337 325 330 341 325 332 316 329 290 263 244 251 203 175 113 346 339 27 44 128 159 126 138 151 169 145 164 153
56 106 81 64 26 12 9 357 345 343 347 350 343 331 314 331 8 25 17 342 313 305 316 297 288 265 264 307 206 148 89 215 343 359 42 79 97 152 177 210 117 118 144
67 45 51 29 16 21 13 24 26 349 323 295 302 310 334 347 358 4 357 335 312 340 322 297 293 251 187 246 54 72 84 150 124 6 343 351 11 37 9 253 131 124 109
99 70 47 42 28 8 21 10 355 3 316 310 331 342 343 349 338 333 337 330 336 335 330 332 342 337 211 170 155 115 275 198 104 120 253 325 2 8 22 84 115 128 148
42 40 53 19 356 2 31 13 19 17 350 354 340 338 333 323 315 327 322 331 333 22 14 5 2 25 14 74 159 134 187 127 180 135 108 291 128 4 26 42 76 94 122